Location: Wangen+im+Allg�u
(47.7098°N, 9.8383°E)
Time: 08:41:21
(UTC+01:00)

Amateur Radio Satellites - All Passes

Search period start: 20 November 2017 08:11
Search period end: 21 November 2017 08:11
Location: Wangen+im+Allg�u, 47.7098°N, 9.8383°E

Satellite Date Start Highest point End Downlink Frequencies (MHz)
Time Altitude Azimuth
NUDT-PHONESAT 20 Nov 08:11:27 08:13:19 13° 298° (WNW) 08:15:11 437.300
SEEDS 20 Nov 08:17:53 08:22:02 55° 288° (WNW) 08:26:11 437.485
PRISM 20 Nov 08:21:07 08:22:12 11° 57° (ENE) 08:23:18 437.425
XW-2A 20 Nov 08:21:53 08:25:15 84° 282° (WNW) 08:28:37 145.665 - 145.685
CUBEBUG 2 20 Nov 08:25:13 08:29:17 48° 289° (WNW) 08:33:16 437.445
UNISAT 6 20 Nov 08:27:09 08:31:11 32° 67° (ENE) 08:35:10 437.425
AAUSAT CUBESAT 2 20 Nov 08:29:07 08:33:20 90° 275° (W) 08:37:32 437.432
TIGRISAT 20 Nov 08:31:53 08:35:57 32° 67° (ENE) 08:39:56 435.000
AO-73 20 Nov 08:34:23 08:38:29 58° 101° (E) 08:42:34 145.935
PCSat 20 Nov 08:46:34 08:51:43 41° 46° (NE) 08:56:50 145.827
HO-68 20 Nov 08:47:58 08:54:44 46° 298° (WNW) 09:01:28 435.675
Oscar 11 20 Nov 08:52:25 08:56:44 62° 101° (E) 09:01:01 .
Max Valier Satellite 20 Nov 09:04:52 09:06:17 12° 89° (E) 09:07:42 145.860
FO-29 20 Nov 09:10:08 09:16:11 36° 268° (W) 09:22:55 435.910
DELFI C3 20 Nov 09:13:53 09:17:07 23° 93° (E) 09:20:20 145.870
ZACube-1 20 Nov 09:18:45 09:22:41 42° 290° (WNW) 09:26:37 437.345
CUTE 1.7 + AOD 2 20 Nov 09:23:13 09:23:40 10° 303° (WNW) 09:24:07 437.475
AIST 2D 20 Nov 09:25:36 09:26:51 12° 62° (ENE) 09:28:06 435.315
UWE-3 20 Nov 09:25:48 09:29:00 22° 296° (WNW) 09:32:09 435.000/436.395/437.385
YUBILEINY 20 Nov 09:33:11 09:34:26 10° 319° (NW) 09:35:41 435.215
BEESAT 3 20 Nov 09:43:56 09:45:57 13° 27° (NNE) 09:47:55 437.485
PRISM 20 Nov 09:52:38 09:56:46 85° 75° (ENE) 10:00:57 437.425
UNISAT 6 20 Nov 10:03:47 10:07:52 31° 264° (W) 10:11:53 437.425
DUCHIFAT 1 20 Nov 10:05:07 10:06:57 13° 58° (ENE) 10:08:47 145.980
AAUSAT CUBESAT 2 20 Nov 10:06:44 10:08:07 11° 302° (WNW) 10:09:29 437.432
TIGRISAT 20 Nov 10:08:34 10:12:37 31° 265° (W) 10:16:36 435.000
EO-79 20 Nov 10:09:34 10:12:22 17° 61° (ENE) 10:15:10 145.935-145.965
AO-73 20 Nov 10:11:46 10:14:18 16° 299° (WNW) 10:16:51 145.935
NANOSAT C BR1 20 Nov 10:13:49 10:16:33 17° 61° (ENE) 10:19:18 145.865
POLYITAN 1 20 Nov 10:23:49 10:27:10 23° 64° (ENE) 10:30:31 437.675
Oscar 11 20 Nov 10:29:41 10:32:25 17° 299° (WNW) 10:35:08 .
PCSat 20 Nov 10:30:06 10:35:07 39° 246° (WSW) 10:40:06 145.827
Max Valier Satellite 20 Nov 10:36:51 10:40:27 57° 287° (WNW) 10:44:04 145.860
HO-68 20 Nov 10:38:15 10:40:43 12° 320° (NW) 10:43:11 435.675
EO-88 20 Nov 10:38:21 10:42:02 79° 284° (WNW) 10:45:40 145.990 - 145.960
QB50P2 20 Nov 10:46:14 10:50:13 41° 70° (ENE) 10:54:14 145.880/145.840
DELFI C3 20 Nov 10:48:17 10:51:56 34° 291° (WNW) 10:55:33 145.870
BEESAT 2 20 Nov 10:51:38 10:54:18 17° 31° (NNE) 10:56:57 435.950
AIST 2D 20 Nov 10:56:08 10:59:33 59° 260° (W) 11:03:00 435.315
AO-85 20 Nov 10:59:14 11:01:47 15° 26° (NNE) 11:04:24 145.980
BUGSAT 1 20 Nov 11:02:50 11:04:51 13° 59° (ENE) 11:06:52 437.445
LO-87 20 Nov 11:07:26 11:10:34 29° 96° (E) 11:13:40 145.935 - 145.965
BEESAT 3 20 Nov 11:20:23 11:24:19 57° 48° (NE) 11:28:10 437.485
Oscar 19 20 Nov 11:22:23 11:25:26 16° 56° (NE) 11:28:30 437.125/150
ESTCUBE 1 20 Nov 11:28:00 11:32:15 38° 97° (E) 11:36:29 437.505/2401.250
FALCONSAT 3 20 Nov 11:28:52 11:29:34 10° 169° (S) 11:30:16 435.103
PRISM 20 Nov 11:32:24 11:32:38 10° 273° (W) 11:32:52 437.425
Gurwin Techsat 1B 20 Nov 11:36:55 11:40:10 17° 56° (NE) 11:43:27 435.225
DUCHIFAT 1 20 Nov 11:37:46 11:42:00 83° 257° (WSW) 11:46:14 145.980
EO-79 20 Nov 11:43:33 11:47:42 56° 259° (W) 11:51:55 145.935-145.965
NANOSAT C BR1 20 Nov 11:47:41 11:51:51 57° 259° (W) 11:56:02 145.865
VELOX 1 20 Nov 11:55:51 11:57:56 13° 88° (E) 12:00:00 145.980
POLYITAN 1 20 Nov 11:58:45 12:02:44 39° 262° (W) 12:06:45 437.675
QB50P2 20 Nov 12:22:53 12:26:10 21° 267° (W) 12:29:28 145.880/145.840
M-CUBED/EXP-1 PRIME 20 Nov 12:25:22 12:27:13 13° 52° (NE) 12:29:10 437.505
BEESAT 2 20 Nov 12:28:35 12:32:40 83° 52° (NE) 12:36:40 435.950
BUGSAT 1 20 Nov 12:35:26 12:39:39 77° 258° (WSW) 12:43:49 437.445
AO-85 20 Nov 12:38:40 12:43:09 52° 47° (NE) 12:47:58 145.980
AO-7 20 Nov 12:40:12 12:46:18 24° 45° (NE) 12:52:25 .
LO-87 20 Nov 12:41:03 12:43:50 22° 294° (WNW) 12:46:35 145.935 - 145.965
BEESAT 3 20 Nov 12:58:51 13:01:26 17° 247° (WSW) 13:04:00 437.485
Oscar 19 20 Nov 12:58:57 13:04:04 87° 256° (WSW) 13:09:14 437.125/150
SPROUT 20 Nov 13:01:24 13:05:41 89° 103° (ESE) 13:09:56 437.525
ESTCUBE 1 20 Nov 13:05:06 13:08:53 27° 295° (WNW) 13:12:40 437.505/2401.250
FALCONSAT 3 20 Nov 13:06:15 13:07:46 12° 184° (S) 13:09:16 435.103
ITAMSAT 1 20 Nov 13:13:28 13:15:22 12° 52° (NE) 13:17:16 435.822/435.867
Gurwin Techsat 1B 20 Nov 13:14:05 13:19:24 88° 255° (WSW) 13:24:47 435.225
50 SAT 20 Nov 13:17:27 13:19:47 18° 94° (E) 13:22:05 437.505
O/OREOS (USA 219) 20 Nov 13:29:21 13:33:30 34° 106° (ESE) 13:37:41 437.305
UKube-1 20 Nov 13:29:27 13:32:24 18° 92° (E) 13:35:18 .
VELOX 1 20 Nov 13:30:26 13:34:55 76° 285° (WNW) 13:39:21 145.980
M-CUBED/EXP-1 PRIME 20 Nov 13:57:30 14:01:03 69° 252° (WSW) 14:04:55 437.505
BEESAT 2 20 Nov 14:08:11 14:09:45 12° 251° (WSW) 14:11:20 435.950
AO-85 20 Nov 14:19:26 14:23:23 27° 244° (WSW) 14:27:32 145.980
DX 1 20 Nov 14:19:44 14:24:10 86° 104° (ESE) 14:28:32 434.975-435.025
MOZHAYETS 4 20 Nov 14:29:02 14:31:44 15° 89° (E) 14:34:24
AO-7 20 Nov 14:29:38 14:37:54 79° 67° (ENE) 14:46:14 .
SPROUT 20 Nov 14:39:18 14:40:54 12° 303° (WNW) 14:42:30 437.525
Oscar 19 20 Nov 14:42:04 14:44:10 12° 274° (W) 14:46:16 437.125/150
ITAMSAT 1 20 Nov 14:48:41 14:53:51 65° 71° (ENE) 14:59:04 435.822/435.867
50 SAT 20 Nov 14:49:06 14:51:55 27° 291° (WNW) 14:54:42 437.505
Gurwin Techsat 1B 20 Nov 14:57:35 15:00:07 13° 273° (W) 15:02:40 435.225
UKube-1 20 Nov 15:04:29 15:08:43 53° 290° (WNW) 15:12:55 .
O/OREOS (USA 219) 20 Nov 15:08:46 15:12:55 32° 306° (NW) 15:17:05 437.305
VELOX 1 20 Nov 15:09:25 15:10:33 11° 305° (NW) 15:11:42 145.980
BEESAT 20 Nov 15:32:40 15:37:16 46° 100° (E) 15:41:49 436.000
NO-84 20 Nov 15:34:40 15:37:55 29° 133° (SE) 15:41:24 435.350 FM
YUBILEINY 20 Nov 15:34:53 15:42:34 31° 63° (ENE) 15:50:11 435.215
ITUPSAT 1 20 Nov 15:41:32 15:46:13 54° 101° (E) 15:50:52 437.325
HO-68 20 Nov 15:50:27 15:52:54 12° 40° (NE) 15:55:21 435.675
DOVE 4 20 Nov 15:54:30 15:59:19 46° 69° (ENE) 16:04:21 437.250
DX 1 20 Nov 15:57:38 15:59:41 13° 303° (WNW) 16:01:44 434.975-435.025
MOZHAYETS 4 20 Nov 16:04:47 16:09:20 66° 287° (WNW) 16:13:51
CUBESAT XI-V 20 Nov 16:13:18 16:17:44 40° 97° (E) 16:22:08 437.345
CUTE-I 20 Nov 16:14:34 16:18:18 19° 57° (ENE) 16:22:01 437.470
AO-7 20 Nov 16:24:52 16:31:30 26° 268° (W) 16:38:13 .
KKS-1 20 Nov 16:29:18 16:31:39 14° 89° (E) 16:33:59 437.445
ITAMSAT 1 20 Nov 16:30:05 16:33:47 19° 269° (W) 16:37:31 435.822/435.867
KAITUO 1B 20 Nov 16:33:12 16:35:18 15° 62° (ENE) 16:37:24 145.475/437.950
XW-2D 20 Nov 16:44:08 16:47:16 26° 67° (ENE) 16:50:25 145.860 - 145.880
STARS 20 Nov 16:57:41 16:58:46 11° 87° (E) 16:59:52 437.465
XW-2B 20 Nov 16:58:34 17:01:59 35° 70° (ENE) 17:05:26 145.730 - 145.750
CUTE 1.7 + AOD 2 20 Nov 17:06:30 17:08:40 14° 60° (ENE) 17:10:50 437.475
BEESAT 20 Nov 17:10:56 17:14:47 25° 298° (WNW) 17:18:36 436.000
NO-84 20 Nov 17:11:13 17:15:03 60° 333° (NNW) 17:19:09 435.350 FM
NUDT-PHONESAT 20 Nov 17:18:06 17:21:32 40° 71° (ENE) 17:25:00 437.300
ITUPSAT 1 20 Nov 17:20:06 17:23:41 22° 299° (WNW) 17:27:16 437.325
XW-2C 20 Nov 17:23:45 17:27:28 71° 75° (ENE) 17:31:13 145.795 - 145.815
LilacSat-2 20 Nov 17:24:23 17:28:08 77° 77° (ENE) 17:31:55 437.200
YUBILEINY 20 Nov 17:31:22 17:40:10 71° 266° (W) 17:48:55 435.215
HO-68 20 Nov 17:32:08 17:38:53 45° 62° (ENE) 17:45:39 435.675
DOVE 4 20 Nov 17:32:55 17:37:11 27° 268° (W) 17:41:37 437.250
XW-2F 20 Nov 17:35:26 17:39:09 90° 62° (ENE) 17:42:55 145.980 - 146.000
SEEDS 20 Nov 17:38:15 17:41:04 18° 62° (ENE) 17:43:54 437.485
AAUSAT CUBESAT 2 20 Nov 17:49:59 17:51:13 11° 58° (ENE) 17:52:27 437.432
CUBEBUG 2 20 Nov 17:50:14 17:53:55 24° 65° (ENE) 17:57:30 437.445
CUBESAT XI-V 20 Nov 17:51:00 17:54:56 27° 295° (WNW) 17:58:51 437.345
CUTE-I 20 Nov 17:52:23 17:57:44 77° 255° (WSW) 18:03:10 437.470
KKS-1 20 Nov 18:04:14 18:08:42 70° 288° (WNW) 18:13:08 437.445
KAITUO 1B 20 Nov 18:05:18 18:08:53 51° 260° (W) 18:12:31 145.475/437.950
RS-15 20 Nov 18:12:16 18:23:09 39° 107° (ESE) 18:33:58 29.354- 29.394
XW-2D 20 Nov 18:18:11 18:21:22 26° 265° (W) 18:24:35 145.860 - 145.880
STRAND 1 20 Nov 18:23:14 18:24:22 11° 85° (E) 18:25:29 437.568
STARS 20 Nov 18:31:19 18:35:45 87° 284° (WNW) 18:40:08 437.465
XW-2B 20 Nov 18:33:31 18:36:16 19° 267° (W) 18:39:03 145.730 - 145.750
CUTE 1.7 + AOD 2 20 Nov 18:39:45 18:43:56 73° 258° (WSW) 18:48:10 437.475
ZACube-1 20 Nov 18:41:54 18:45:23 24° 66° (ENE) 18:48:49 437.345
UWE-3 20 Nov 18:48:26 18:52:44 50° 72° (ENE) 18:56:55 435.000/436.395/437.385
NO-84 20 Nov 18:49:23 18:53:00 30° 354° (N) 18:56:46 435.350 FM
NUDT-PHONESAT 20 Nov 18:53:15 18:55:35 16° 269° (W) 18:57:56 437.300
XW-2A 20 Nov 18:55:41 18:58:54 50° 74° (ENE) 19:02:09 145.665 - 145.685
XW-2C 20 Nov 19:01:53 19:02:07 10° 272° (W) 19:02:21 145.795 - 145.815
SEEDS 20 Nov 19:12:19 19:16:22 52° 260° (W) 19:20:29 437.485
HO-68 20 Nov 19:19:53 19:26:39 43° 262° (W) 19:33:28 435.675
AAUSAT CUBESAT 2 20 Nov 19:21:51 19:25:58 89° 93° (E) 19:30:10 437.432
CUBEBUG 2 20 Nov 19:25:58 19:30:20 42° 262° (W) 19:34:35 437.445
YUBILEINY 20 Nov 19:30:32 19:35:16 16° 288° (WNW) 19:39:59 435.215
AO-73 20 Nov 19:32:35 19:36:51 68° 74° (ENE) 19:41:04 145.935
CUTE-I 20 Nov 19:37:00 19:38:41 11° 275° (W) 19:40:23 437.470
KKS-1 20 Nov 19:43:47 19:44:25 10° 306° (NW) 19:45:03 437.445
Oscar 11 20 Nov 19:50:02 19:54:18 71° 74° (ENE) 19:58:36 .
STRAND 1 20 Nov 19:59:15 20:04:25 77° 104° (ESE) 20:09:31 437.568
DELFI C3 20 Nov 20:02:19 20:05:21 21° 65° (ENE) 20:08:25 145.870
STARS 20 Nov 20:09:38 20:11:23 12° 304° (NW) 20:13:06 437.465
FO-29 20 Nov 20:14:55 20:22:13 39° 93° (E) 20:29:10 435.910
ZACube-1 20 Nov 20:17:28 20:21:30 37° 263° (W) 20:25:29 437.345
RS-15 20 Nov 20:22:26 20:34:49 77° 311° (NW) 20:47:05 29.354- 29.394
UWE-3 20 Nov 20:26:16 20:29:26 19° 268° (W) 20:32:33 435.000/436.395/437.385
NO-84 20 Nov 20:27:16 20:31:10 36° 15° (NNE) 20:35:09 435.350 FM
XW-2A 20 Nov 20:30:59 20:31:55 11° 270° (W) 20:32:51 145.665 - 145.685
AO-73 20 Nov 21:11:26 21:13:31 13° 271° (W) 21:15:36 145.935
Max Valier Satellite 20 Nov 21:18:13 21:21:51 83° 257° (WSW) 21:25:31 145.860
EO-88 20 Nov 21:18:35 21:22:11 70° 74° (ENE) 21:25:48 145.990 - 145.960
nSIGHT-1 20 Nov 21:19:28 21:22:11 25° 142° (SE) 21:24:53 .
Oscar 11 20 Nov 21:28:55 21:30:55 13° 272° (W) 21:32:56 .
DELFI C3 20 Nov 21:36:10 21:39:52 38° 263° (W) 21:43:37 145.870
STRAND 1 20 Nov 21:39:37 21:43:00 18° 303° (WNW) 21:46:22 437.568
SO-50 20 Nov 21:40:12 21:43:47 24° 115° (ESE) 21:47:23 436.795
LO-87 20 Nov 21:46:36 21:49:22 21° 66° (ENE) 21:52:08 145.935 - 145.965
UNISAT 6 20 Nov 21:51:26 21:55:31 41° 98° (E) 21:59:32 437.425
TIGRISAT 20 Nov 21:56:01 22:00:06 41° 98° (E) 22:04:07 435.000
O/OREOS (USA 219) 20 Nov 21:57:03 22:00:17 18° 47° (NE) 22:03:29 437.305
FO-29 20 Nov 21:59:47 22:07:25 55° 294° (WNW) 22:14:45 435.910
ISS 20 Nov 22:00:17 22:03:25 44° 147° (SSE) 22:06:34 437.550
NO-84 20 Nov 22:04:36 22:08:52 80° 215° (SW) 22:13:08 435.350 FM
SPROUT 20 Nov 22:24:18 22:26:21 13° 59° (ENE) 22:28:24 437.525
ESTCUBE 1 20 Nov 22:30:25 22:34:45 52° 71° (ENE) 22:39:07 437.505/2401.250
RS-15 20 Nov 22:38:17 22:49:36 39° 341° (NNW) 23:00:37 29.354- 29.394
nSIGHT-1 20 Nov 22:54:59 22:58:12 70° 340° (NNW) 23:01:24 .
VELOX 1 20 Nov 22:55:46 22:58:52 19° 61° (ENE) 23:01:59 145.980
PRISM 20 Nov 23:05:30 23:09:42 87° 98° (E) 23:13:51 437.425
LO-87 20 Nov 23:19:21 23:22:36 31° 263° (W) 23:25:52 145.935 - 145.965
SO-50 20 Nov 23:19:34 23:23:57 51° 314° (NW) 23:28:23 436.795
DUCHIFAT 1 20 Nov 23:20:05 23:21:45 12° 88° (E) 23:23:25 145.980
EO-79 20 Nov 23:25:27 23:28:21 18° 91° (E) 23:31:14 145.935-145.965
UNISAT 6 20 Nov 23:28:39 23:32:00 23° 296° (WNW) 23:35:19 437.425
NANOSAT C BR1 20 Nov 23:29:15 23:32:06 17° 91° (E) 23:34:54 145.865
TIGRISAT 20 Nov 23:33:14 23:36:33 22° 297° (WNW) 23:39:50 435.000
PCSat 20 Nov 23:33:43 23:36:59 16° 105° (ESE) 23:40:16 145.827
O/OREOS (USA 219) 20 Nov 23:35:39 23:40:12 70° 248° (WSW) 23:44:42 437.305
ISS 20 Nov 23:36:41 23:39:54 51° 346° (NNW) 23:43:06 437.550
POLYITAN 1 20 Nov 23:40:07 23:43:36 25° 94° (E) 23:47:03 437.675
NO-84 20 Nov 23:43:01 23:45:41 16° 233° (SW) 23:48:22 435.350 FM
DX 1 20 Nov 23:44:18 23:46:49 15° 58° (ENE) 23:49:20 434.975-435.025
FO-29 20 Nov 23:46:34 23:50:46 16° 315° (NW) 23:54:57 435.910
50 SAT 20 Nov 23:48:54 23:50:01 11° 62° (ENE) 23:51:10 437.505
AIST 2D 20 Nov 23:50:24 23:53:56 79° 285° (WNW) 23:57:28 435.315
SPROUT 20 Nov 23:57:20 00:01:38 81° 256° (WSW) 00:05:57 437.525
QB50P2 21 Nov 00:02:58 00:07:04 47° 99° (E) 00:11:07 145.880/145.840
ESTCUBE 1 21 Nov 00:08:40 00:11:51 19° 269° (W) 00:15:03 437.505/2401.250
BUGSAT 1 21 Nov 00:15:46 00:17:10 11° 88° (E) 00:18:34 437.445
UKube-1 21 Nov 00:26:44 00:30:12 24° 63° (ENE) 00:33:40 .
VELOX 1 21 Nov 00:30:32 00:34:54 57° 259° (W) 00:39:19 145.980
nSIGHT-1 21 Nov 00:31:41 00:34:44 38° 360° (N) 00:37:46 .
PRISM 21 Nov 00:42:42 00:44:19 12° 303° (WNW) 00:45:56 437.425
DUCHIFAT 1 21 Nov 00:53:44 00:57:55 72° 285° (WNW) 01:02:03 145.980
RS-15 21 Nov 00:55:02 01:06:08 38° 15° (NNE) 01:16:44 29.354- 29.394
EO-79 21 Nov 01:00:19 01:04:22 48° 289° (WNW) 01:08:24 145.935-145.965
SO-50 21 Nov 01:02:50 01:05:26 15° 336° (NNW) 01:08:04 436.795
NANOSAT C BR1 21 Nov 01:04:01 01:08:05 49° 289° (WNW) 01:12:06 145.865
Oscar 19 21 Nov 01:07:28 01:11:44 25° 93° (E) 01:15:59 437.125/150
BEESAT 21 Nov 01:07:49 01:09:47 12° 55° (NE) 01:11:44 436.000
ISS 21 Nov 01:13:37 01:16:44 41° 6° (N) 01:19:52 437.550
PCSat 21 Nov 01:14:13 01:19:39 86° 303° (WNW) 01:25:07 145.827
POLYITAN 1 21 Nov 01:15:38 01:19:26 34° 292° (WNW) 01:23:13 437.675
ITUPSAT 1 21 Nov 01:16:21 01:18:55 15° 56° (ENE) 01:21:29 437.325
DX 1 21 Nov 01:18:05 01:22:27 73° 257° (WSW) 01:26:51 434.975-435.025
50 SAT 21 Nov 01:18:32 01:21:42 52° 259° (WSW) 01:24:54 437.505
Gurwin Techsat 1B 21 Nov 01:27:14 01:31:48 28° 94° (E) 01:36:20 435.225
MOZHAYETS 4 21 Nov 01:33:47 01:37:19 23° 63° (ENE) 01:40:52
QB50P2 21 Nov 01:39:29 01:42:32 20° 297° (WNW) 01:45:34 145.880/145.840
BUGSAT 1 21 Nov 01:48:58 01:53:01 71° 287° (WNW) 01:57:00 437.445
UKube-1 21 Nov 02:01:56 02:06:01 40° 262° (W) 02:10:07 .
nSIGHT-1 21 Nov 02:08:04 02:11:16 67° 19° (NNE) 02:14:28 .
AO-7 21 Nov 02:28:36 02:34:24 20° 89° (E) 02:40:10 .
BEESAT 21 Nov 02:41:59 02:46:45 78° 74° (ENE) 02:51:33 436.000
Oscar 19 21 Nov 02:46:19 02:51:17 48° 292° (WNW) 02:56:13 437.125/150
BEESAT 3 21 Nov 02:49:53 02:53:25 31° 118° (ESE) 02:56:59 437.485
ISS 21 Nov 02:50:08 02:53:25 80° 206° (SSW) 02:56:40 437.550
ITUPSAT 1 21 Nov 02:51:16 02:56:04 88° 259° (W) 03:00:53 437.325
ITAMSAT 1 21 Nov 02:59:11 03:02:36 17° 90° (E) 03:05:59 435.822/435.867
PCSat 21 Nov 02:59:41 03:03:51 22° 326° (NW) 03:08:01 145.827
M-CUBED/EXP-1 PRIME 21 Nov 03:05:46 03:10:10 51° 105° (ESE) 03:14:41 437.505
Gurwin Techsat 1B 21 Nov 03:06:51 03:11:55 46° 293° (WNW) 03:16:59 435.225
RS-15 21 Nov 03:08:59 03:21:03 72° 46° (NE) 03:32:25 29.354- 29.394
MOZHAYETS 4 21 Nov 03:09:48 03:14:12 47° 261° (W) 03:18:37
CUBESAT XI-V 21 Nov 03:19:32 03:24:02 56° 71° (ENE) 03:28:34 437.345
KKS-1 21 Nov 03:30:02 03:33:23 21° 62° (ENE) 03:36:45 437.445
nSIGHT-1 21 Nov 03:44:34 03:47:18 26° 218° (SW) 03:50:02 .
DOVE 4 21 Nov 03:52:47 03:53:57 11° 83° (E) 03:55:07 437.250
STARS 21 Nov 03:56:25 03:59:15 17° 60° (ENE) 04:02:04 437.465
BEESAT 2 21 Nov 03:59:34 04:03:26 47° 121° (ESE) 04:07:21 435.950
AO-7 21 Nov 04:19:57 04:28:21 84° 109° (ESE) 04:36:44 .
BEESAT 21 Nov 04:22:39 04:25:06 14° 271° (W) 04:27:34 436.000
BEESAT 3 21 Nov 04:27:13 04:30:55 34° 317° (NW) 04:34:37 437.485
SO-50 21 Nov 04:27:23 04:30:18 16° 26° (NNE) 04:33:16 436.795
ISS 21 Nov 04:27:27 04:29:27 15° 224° (SW) 04:31:27 437.550
ITUPSAT 1 21 Nov 04:32:58 04:34:35 12° 273° (W) 04:36:12 437.325
AO-85 21 Nov 04:36:40 04:40:22 43° 120° (ESE) 04:44:15 145.980
ITAMSAT 1 21 Nov 04:37:24 04:42:37 72° 288° (WNW) 04:47:47 435.822/435.867
M-CUBED/EXP-1 PRIME 21 Nov 04:40:42 04:44:16 24° 302° (WNW) 04:47:54 437.505
YUBILEINY 21 Nov 04:41:16 04:48:28 30° 81° (E) 04:55:44 435.215
CUBESAT XI-V 21 Nov 04:58:37 05:01:45 18° 270° (W) 05:04:56 437.345
KKS-1 21 Nov 05:05:15 05:09:36 50° 260° (W) 05:14:00 437.445
RS-15 21 Nov 05:22:10 05:32:46 41° 252° (WSW) 05:42:52 29.354- 29.394
DOVE 4 21 Nov 05:27:18 05:32:34 75° 102° (ESE) 05:37:35 437.250
STARS 21 Nov 05:30:42 05:35:06 65° 258° (WSW) 05:39:32 437.465
KAITUO 1B 21 Nov 05:34:15 05:35:52 12° 89° (E) 05:37:28 145.475/437.950
BEESAT 2 21 Nov 05:37:55 05:41:21 26° 321° (NW) 05:44:49 435.950
STRAND 1 21 Nov 05:40:43 05:44:47 24° 61° (ENE) 05:48:52 437.568
XW-2D 21 Nov 05:46:47 05:49:54 24° 94° (E) 05:53:01 145.860 - 145.880
XW-2B 21 Nov 06:01:20 06:04:49 32° 97° (E) 06:08:16 145.730 - 145.750
CUTE-I 21 Nov 06:06:11 06:11:02 33° 96° (E) 06:15:50 437.470
SO-50 21 Nov 06:07:07 06:11:42 59° 48° (NE) 06:16:20 436.795
BEESAT 3 21 Nov 06:09:08 06:09:36 10° 339° (NNW) 06:10:03 437.485
AO-7 21 Nov 06:13:32 06:20:18 29° 311° (NW) 06:27:04 .
AO-85 21 Nov 06:17:31 06:20:56 27° 322° (NW) 06:24:31 145.980
NUDT-PHONESAT 21 Nov 06:18:13 06:21:39 35° 97° (E) 06:25:05 437.300
ITAMSAT 1 21 Nov 06:18:52 06:21:10 13° 307° (NW) 06:23:27 435.822/435.867
CUTE 1.7 + AOD 2 21 Nov 06:22:08 06:24:46 16° 90° (E) 06:27:23 437.475
XW-2C 21 Nov 06:26:42 06:30:30 66° 101° (ESE) 06:34:17 145.795 - 145.815
LilacSat-2 21 Nov 06:28:08 06:31:59 74° 103° (ESE) 06:35:48 437.200
FO-29 21 Nov 06:31:03 06:36:36 27° 54° (NE) 06:42:34 435.910
PCSat 21 Nov 06:33:22 06:35:31 12° 18° (NNE) 06:37:39 145.827
YUBILEINY 21 Nov 06:35:50 06:44:33 70° 283° (WNW) 06:53:24 435.215
XW-2F 21 Nov 06:37:48 06:41:37 82° 103° (ESE) 06:45:25 145.980 - 146.000
HO-68 21 Nov 06:43:28 06:49:52 33° 95° (E) 06:56:13 435.675
SEEDS 21 Nov 06:53:00 06:56:12 20° 92° (E) 06:59:23 437.485
AAUSAT CUBESAT 2 21 Nov 07:02:28 07:03:52 11° 87° (E) 07:05:16 437.432
DOVE 4 21 Nov 07:06:03 07:09:36 19° 302° (WNW) 07:13:04 437.250
KAITUO 1B 21 Nov 07:06:29 07:10:12 58° 287° (WNW) 07:13:55 145.475/437.950
CUBEBUG 2 21 Nov 07:13:20 07:17:03 30° 95° (E) 07:20:41 437.445
STRAND 1 21 Nov 07:18:35 07:23:38 55° 259° (W) 07:28:42 437.568
XW-2D 21 Nov 07:20:45 07:24:05 30° 292° (WNW) 07:27:26 145.860 - 145.880
XW-2B 21 Nov 07:35:49 07:38:49 22° 294° (WNW) 07:41:49 145.730 - 145.750
Oscar 11 21 Nov 07:36:29 07:37:14 10° 86° (E) 07:37:59 .
CUTE-I 21 Nov 07:46:09 07:51:08 40° 294° (WNW) 07:56:05 437.470
XW-2A 21 Nov 07:46:20 07:49:23 32° 97° (E) 07:52:27 145.665 - 145.685
SO-50 21 Nov 07:48:15 07:51:48 22° 246° (WSW) 07:55:23 436.795
NUDT-PHONESAT 21 Nov 07:52:32 07:55:17 20° 295° (WNW) 07:58:02 437.300
CUTE 1.7 + AOD 2 21 Nov 07:56:45 08:00:57 57° 287° (WNW) 08:05:09 437.475
ZACube-1 21 Nov 08:02:00 08:05:40 30° 95° (E) 08:09:20 437.345
XW-2C 21 Nov 08:02:27 08:04:11 13° 299° (WNW) 08:05:55 145.795 - 145.815
LilacSat-2 21 Nov 08:04:15 08:05:41 12° 300° (WNW) 08:07:08 437.200
